Time,TemperatureF,DewpointF,PressureIn,WindDirection,WindDirectionDegrees,WindSpeedMPH,WindSpeedGustMPH,Humidity,HourlyPrecipIn,Conditions,Clouds,dailyrainin,SolarRadiationWatts/m^2,SoftwareType,DateUTC
2013-03-06 00:00:00,29.1,26.5,30.14,SE,132,11.5,11.5,90,0.00,OVC,FEW,0.16,0.0,WeatherDisplay:10.37,2013-03-06 05:00:00,
2013-03-06 00:01:00,29.1,26.5,30.14,East,99,9.2,9.2,90,0.00,RA,FEW,0.00,0.0,WeatherDisplay:10.37,2013-03-06 05:01:00,
2013-03-06 00:02:00,29.1,26.5,30.14,East,100,9.2,9.2,90,0.00,-SN,FEW,0.00,0.0,WeatherDisplay:10.37,2013-03-06 05:02:00,
2013-03-06 00:07:00,29.2,26.4,30.14,ESE,109,12.0,12.0,89,0.00,-SN,FEW,0.00,0.0,WeatherDisplay:10.37,2013-03-06 05:07:00,
2013-03-06 00:12:00,29.2,26.6,30.14,ESE,110,9.0,9.0,90,0.00,-SN,FEW,0.00,0.0,WeatherDisplay:10.37,2013-03-06 05:12:00,
2013-03-06 00:17:00,29.0,26.4,30.14,ESE,118,6.0,6.0,90,0.00,BKN,FEW,0.00,0.0,WeatherDisplay:10.37,2013-03-06 05:17:00,
2013-03-06 00:22:00,28.9,26.3,30.14,ESE,103,9.2,9.2,90,0.00,BKN,FEW,0.00,0.0,WeatherDisplay:10.37,2013-03-06 05:22:00,
2013-03-06 00:27:00,28.9,26.6,30.14,ESE,107,5.8,5.8,91,0.00,BKN,FEW,0.00,0.0,WeatherDisplay:10.37,2013-03-06 05:27:00,
2013-03-06 00:32:00,28.8,26.5,30.14,ESE,115,5.0,5.0,91,0.00,BKN,FEW,0.00,0.0,WeatherDisplay:10.37,2013-03-06 05:32:00,
2013-03-06 00:37:00,28.8,26.8,30.14,ESE,109,11.5,11.5,92,0.00,BKN,FEW,0.00,0.0,WeatherDisplay:10.37,2013-03-06 05:37:00,
2013-03-06 00:42:00,28.8,26.8,30.14,ESE,115,6.0,6.0,92,0.00,BKN,FEW,0.00,0.0,WeatherDisplay:10.37,2013-03-06 05:42:00,
2013-03-06 00:47:00,28.8,26.8,30.14,ESE,110,7.0,7.0,92,0.00,BKN,FEW,0.00,0.0,WeatherDisplay:10.37,2013-03-06 05:47:00,
2013-03-06 00:52:00,28.8,27.0,30.14,ESE,116,6.9,6.9,93,0.00,BKN,FEW,0.00,0.0,WeatherDisplay:10.37,2013-03-06 05:52:00,
2013-03-06 00:57:00,28.8,27.0,30.14,East,98,6.0,6.0,93,0.00,BKN,FEW,0.00,0.0,WeatherDisplay:10.37,2013-03-06 05:57:00,
2013-03-06 01:02:00,28.8,27.0,30.15,SE,142,6.9,6.9,93,0.00,CLR,FEW,0.00,0.0,WeatherDisplay:10.37,2013-03-06 06:02:00,
2013-03-06 01:07:00,28.8,27.0,30.15,ESE,110,6.0,6.0,93,0.00,CLR,FEW,0.00,0.0,WeatherDisplay:10.37,2013-03-06 06:07:00,
2013-03-06 01:12:00,28.7,27.2,30.15,SE,128,5.8,5.8,94,0.00,CLR,FEW,0.00,0.0,WeatherDisplay:10.37,2013-03-06 06:12:00,
2013-03-06 01:17:00,28.6,27.1,30.15,East,97,9.0,9.0,94,0.00,CLR,FEW,0.00,0.0,WeatherDisplay:10.37,2013-03-06 06:17:00,
2013-03-06 01:22:00,28.6,27.1,30.15,ESE,117,8.0,8.0,94,0.00,CLR,FEW,0.00,0.0,WeatherDisplay:10.37,2013-03-06 06:22:00,
2013-03-06 01:27:00,28.7,26.9,30.15,East,87,10.4,10.4,93,0.00,CLR,FEW,0.00,0.0,WeatherDisplay:10.37,2013-03-06 06:27:00,
2013-03-06 01:32:00,28.7,26.9,30.15,ESE,110,9.0,9.0,93,0.00,CLR,FEW,0.00,0.0,WeatherDisplay:10.37,2013-03-06 06:32:00,
2013-03-06 01:37:00,28.7,26.9,30.16,East,101,10.4,10.4,93,0.00,CLR,FEW,0.00,0.0,WeatherDisplay:10.37,2013-03-06 06:37:00,
2013-03-06 01:42:00,28.8,26.8,30.15,East,99,13.0,13.0,92,0.00,CLR,FEW,0.00,0.0,WeatherDisplay:10.37,2013-03-06 06:42:00,
2013-03-06 01:47:00,29.0,26.7,30.16,SE,134,13.8,13.8,91,0.00,CLR,FEW,0.00,0.0,WeatherDisplay:10.37,2013-03-06 06:47:00,
2013-03-06 01:52:00,29.2,26.6,30.16,ESE,107,13.0,13.0,90,0.00,CLR,FEW,0.00,0.0,WeatherDisplay:10.37,2013-03-06 06:52:00,
2013-03-06 01:57:00,29.2,26.4,30.16,ESE,113,12.0,12.0,89,0.00,CLR,FEW,0.00,0.0,WeatherDisplay:10.37,2013-03-06 06:57:00,
2013-03-06 02:02:00,29.3,26.5,30.16,East,101,10.4,10.4,89,0.00,OVC,FEW,0.00,0.0,WeatherDisplay:10.37,2013-03-06 07:02:00,
2013-03-06 02:07:00,29.2,26.4,30.16,ESE,111,10.0,10.0,89,0.00,OVC,FEW,0.00,0.0,WeatherDisplay:10.37,2013-03-06 07:07:00,
2013-03-06 02:12:00,29.1,26.5,30.15,SE,128,10.4,10.4,90,0.00,OVC,FEW,0.00,0.0,WeatherDisplay:10.37,2013-03-06 07:12:00,
2013-03-06 02:17:00,29.0,26.4,30.15,SE,134,13.0,13.0,90,0.00,OVC,FEW,0.00,0.0,WeatherDisplay:10.37,2013-03-06 07:17:00,
2013-03-06 02:22:00,29.1,26.3,30.15,East,88,13.0,13.0,89,0.00,OVC,FEW,0.00,0.0,WeatherDisplay:10.37,2013-03-06 07:22:00,
2013-03-06 02:27:00,29.1,26.3,30.15,ESE,120,11.5,11.5,89,0.00,OVC,FEW,0.00,0.0,WeatherDisplay:10.37,2013-03-06 07:27:00,
2013-03-06 02:32:00,29.1,26.3,30.15,ESE,114,15.0,15.0,89,0.00,OVC,FEW,0.00,0.0,WeatherDisplay:10.37,2013-03-06 07:32:00,
2013-03-06 02:37:00,29.1,26.3,30.15,ESE,107,10.4,10.4,89,0.00,OVC,FEW,0.00,0.0,WeatherDisplay:10.37,2013-03-06 07:37:00,
2013-03-06 02:42:00,29.0,26.2,30.16,SSE,157,11.5,11.5,89,0.00,OVC,FEW,0.00,0.0,WeatherDisplay:10.37,2013-03-06 07:42:00,
2013-03-06 02:47:00,29.1,26.3,30.16,ESE,116,13.0,13.0,89,0.00,OVC,FEW,0.00,0.0,WeatherDisplay:10.37,2013-03-06 07:47:00,
2013-03-06 02:52:00,29.0,26.2,30.16,ESE,112,9.2,9.2,89,0.00,OVC,FEW,0.00,0.0,WeatherDisplay:10.37,2013-03-06 07:52:00,
2013-03-06 02:57:00,29.0,26.2,30.16,East,86,13.0,13.0,89,0.00,OVC,FEW,0.00,0.0,WeatherDisplay:10.37,2013-03-06 07:57:00,
2013-03-06 03:02:00,29.0,26.2,30.17,ESE,107,7.0,7.0,89,0.00,OVC,FEW,0.00,0.0,WeatherDisplay:10.37,2013-03-06 08:02:00,
2013-03-06 03:07:00,28.9,26.1,30.17,ESE,113,9.0,9.0,89,0.00,OVC,FEW,0.00,0.0,WeatherDisplay:10.37,2013-03-06 08:07:00,
2013-03-06 03:12:00,28.9,26.1,30.17,ESE,119,10.4,10.4,89,0.00,OVC,FEW,0.00,0.0,WeatherDisplay:10.37,2013-03-06 08:12:00,
2013-03-06 03:17:00,28.8,26.0,30.17,East,99,11.0,11.0,89,0.00,OVC,FEW,0.00,0.0,WeatherDisplay:10.37,2013-03-06 08:17:00,
2013-03-06 03:22:00,28.7,25.9,30.17,ESE,111,7.0,7.0,89,0.00,OVC,FEW,0.00,0.0,WeatherDisplay:10.37,2013-03-06 08:22:00,
2013-03-06 03:27:00,28.7,26.1,30.17,ESE,105,14.0,14.0,90,0.00,OVC,FEW,0.00,0.0,WeatherDisplay:10.37,2013-03-06 08:27:00,
2013-03-06 03:32:00,28.7,26.1,30.17,ESE,115,10.4,10.4,90,0.00,OVC,FEW,0.00,0.0,WeatherDisplay:10.37,2013-03-06 08:32:00,
2013-03-06 03:37:00,28.6,26.0,30.17,ESE,105,7.0,7.0,90,0.00,OVC,FEW,0.00,0.0,WeatherDisplay:10.37,2013-03-06 08:37:00,
2013-03-06 03:42:00,28.5,26.2,30.17,ESE,107,10.4,10.4,91,0.00,OVC,FEW,0.00,0.0,WeatherDisplay:10.37,2013-03-06 08:42:00,
2013-03-06 03:47:00,28.4,26.1,30.17,ESE,102,7.0,7.0,91,0.00,OVC,FEW,0.00,0.0,WeatherDisplay:10.37,2013-03-06 08:47:00,
2013-03-06 03:52:00,28.4,25.8,30.17,ESE,103,11.5,11.5,90,0.00,OVC,FEW,0.00,0.0,WeatherDisplay:10.37,2013-03-06 08:52:00,
2013-03-06 03:57:00,28.4,26.1,30.18,East,98,6.9,6.9,91,0.00,OVC,FEW,0.00,0.0,WeatherDisplay:10.37,2013-03-06 08:57:00,
2013-03-06 04:02:00,28.4,26.1,30.18,ESE,117,6.9,6.9,91,0.00,OVC,FEW,0.00,0.0,WeatherDisplay:10.37,2013-03-06 09:02:00,
2013-03-06 04:07:00,28.4,26.1,30.18,East,96,8.0,8.0,91,0.00,OVC,FEW,0.00,0.0,WeatherDisplay:10.37,2013-03-06 09:07:00,
2013-03-06 04:12:00,28.3,26.0,30.18,East,88,9.2,9.2,91,0.00,OVC,FEW,0.00,0.0,WeatherDisplay:10.37,2013-03-06 09:12:00,
2013-03-06 04:17:00,28.3,26.0,30.18,East,101,6.0,6.0,91,0.00,OVC,FEW,0.00,0.0,WeatherDisplay:10.37,2013-03-06 09:17:00,
2013-03-06 04:22:00,28.3,26.0,30.18,ESE,115,11.0,11.0,91,0.00,OVC,FEW,0.00,0.0,WeatherDisplay:10.37,2013-03-06 09:22:00,
2013-03-06 04:27:00,28.3,26.0,30.18,ESE,123,10.4,10.4,91,0.00,OVC,FEW,0.00,0.0,WeatherDisplay:10.37,2013-03-06 09:27:00,
2013-03-06 04:32:00,28.4,26.1,30.19,ESE,111,11.5,11.5,91,0.00,OVC,FEW,0.00,0.0,WeatherDisplay:10.37,2013-03-06 09:32:00,
2013-03-06 04:37:00,28.4,25.8,30.18,East,98,9.0,9.0,90,0.00,OVC,FEW,0.00,0.0,WeatherDisplay:10.37,2013-03-06 09:37:00,
2013-03-06 04:42:00,28.4,25.8,30.18,ESE,109,5.8,5.8,90,0.00,OVC,FEW,0.00,0.0,WeatherDisplay:10.37,2013-03-06 09:42:00,
2013-03-06 04:47:00,28.4,25.8,30.19,ESE,110,5.0,5.0,90,0.00,OVC,FEW,0.00,0.0,WeatherDisplay:10.37,2013-03-06 09:47:00,
2013-03-06 04:52:00,28.4,25.8,30.19,ESE,116,8.0,8.0,90,0.00,OVC,FEW,0.00,0.0,WeatherDisplay:10.37,2013-03-06 09:52:00,
2013-03-06 04:57:00,28.4,25.8,30.19,ESE,108,8.0,8.0,90,0.00,OVC,FEW,0.00,0.0,WeatherDisplay:10.37,2013-03-06 09:57:00,
2013-03-06 05:02:00,28.5,25.9,30.19,East,99,3.5,3.5,90,0.00,OVC,FEW,0.00,0.0,WeatherDisplay:10.37,2013-03-06 10:02:00,
2013-03-06 05:07:00,28.4,25.8,30.19,ESE,105,4.0,4.0,90,0.00,OVC,FEW,0.00,0.0,WeatherDisplay:10.37,2013-03-06 10:07:00,
2013-03-06 05:12:00,28.4,25.8,30.19,ENE,70,4.6,4.6,90,0.00,OVC,FEW,0.00,0.0,WeatherDisplay:10.37,2013-03-06 10:12:00,
2013-03-06 05:17:00,28.3,25.7,30.19,ESE,112,3.5,3.5,90,0.00,OVC,FEW,0.00,0.0,WeatherDisplay:10.37,2013-03-06 10:17:00,
2013-03-06 05:22:00,28.3,25.7,30.19,ESE,117,10.0,10.0,90,0.00,OVC,FEW,0.00,0.0,WeatherDisplay:10.37,2013-03-06 10:22:00,
2013-03-06 05:27:00,28.2,25.6,30.19,ESE,102,8.1,8.1,90,0.00,OVC,FEW,0.00,0.0,WeatherDisplay:10.37,2013-03-06 10:27:00,
2013-03-06 05:32:00,28.2,25.6,30.19,ESE,102,3.5,3.5,90,0.00,OVC,FEW,0.00,0.0,WeatherDisplay:10.37,2013-03-06 10:32:00,
2013-03-06 05:37:00,28.2,25.6,30.19,East,92,4.0,4.0,90,0.00,OVC,FEW,0.00,0.0,WeatherDisplay:10.37,2013-03-06 10:37:00,
2013-03-06 05:42:00,28.1,25.5,30.19,East,98,9.0,9.0,90,0.00,OVC,FEW,0.00,0.0,WeatherDisplay:10.37,2013-03-06 10:42:00,
2013-03-06 05:47:00,28.1,25.5,30.19,ESE,105,5.0,5.0,90,0.00,OVC,FEW,0.00,0.0,WeatherDisplay:10.37,2013-03-06 10:47:00,
2013-03-06 05:52:00,28.1,25.5,30.19,ESE,116,5.8,5.8,90,0.00,OVC,FEW,0.00,0.0,WeatherDisplay:10.37,2013-03-06 10:52:00,
2013-03-06 05:57:00,28.1,25.5,30.19,ESE,117,5.8,5.8,90,0.00,OVC,FEW,0.00,0.0,WeatherDisplay:10.37,2013-03-06 10:57:00,
2013-03-06 06:02:00,28.0,25.4,30.19,ESE,119,6.0,6.0,90,0.00,OVC,FEW,0.00,0.0,WeatherDisplay:10.37,2013-03-06 11:02:00,
2013-03-06 06:07:00,28.0,25.4,30.19,East,97,5.8,5.8,90,0.00,OVC,FEW,0.00,0.0,WeatherDisplay:10.37,2013-03-06 11:07:00,
2013-03-06 06:12:00,27.9,25.3,30.19,East,98,9.0,9.0,90,0.00,OVC,FEW,0.00,0.0,WeatherDisplay:10.37,2013-03-06 11:12:00,
2013-03-06 06:17:00,27.8,25.2,30.19,East,98,10.4,10.4,90,0.00,OVC,FEW,0.00,0.0,WeatherDisplay:10.37,2013-03-06 11:17:00,
2013-03-06 06:22:00,27.6,25.1,30.19,SE,136,10.0,10.0,90,0.00,OVC,FEW,0.00,7.0,WeatherDisplay:10.37,2013-03-06 11:22:00,
2013-03-06 06:27:00,27.6,25.1,30.19,ESE,112,7.0,7.0,90,0.00,OVC,FEW,0.00,9.0,WeatherDisplay:10.37,2013-03-06 11:27:00,
2013-03-06 06:32:00,27.5,25.0,30.19,ESE,123,7.0,7.0,90,0.00,OVC,FEW,0.00,19.0,WeatherDisplay:10.37,2013-03-06 11:32:00,
2013-03-06 06:37:00,27.5,24.7,30.20,ESE,113,11.0,11.0,89,0.00,OVC,FEW,0.00,30.0,WeatherDisplay:10.37,2013-03-06 11:37:00,
2013-03-06 06:42:00,27.7,24.9,30.21,East,94,7.0,7.0,89,0.00,OVC,FEW,0.00,39.0,WeatherDisplay:10.37,2013-03-06 11:42:00,
2013-03-06 06:48:00,27.7,24.9,30.20,East,84,9.2,9.2,89,0.00,OVC,FEW,0.00,53.0,WeatherDisplay:10.37,2013-03-06 11:48:00,
2013-03-06 06:53:00,27.7,24.6,30.20,East,101,9.2,9.2,88,0.00,OVC,FEW,0.00,44.0,WeatherDisplay:10.37,2013-03-06 11:53:00,
2013-03-06 06:58:00,27.8,25.0,30.20,East,91,9.0,9.0,89,0.00,OVC,FEW,0.00,51.0,WeatherDisplay:10.37,2013-03-06 11:58:00,
2013-03-06 07:03:00,27.7,24.6,30.20,ESE,109,7.0,7.0,88,0.00,OVC,FEW,0.00,39.0,WeatherDisplay:10.37,2013-03-06 12:03:00,
2013-03-06 07:08:00,27.7,24.9,30.20,WNW,298,12.0,12.0,89,0.00,OVC,FEW,0.00,28.0,WeatherDisplay:10.37,2013-03-06 12:08:00,
2013-03-06 07:13:00,27.6,24.5,30.20,East,96,15.0,15.0,88,0.00,OVC,FEW,0.00,37.0,WeatherDisplay:10.37,2013-03-06 12:13:00,
2013-03-06 07:18:00,27.8,24.7,30.20,ESE,105,11.5,11.5,88,0.00,OVC,FEW,0.00,62.0,WeatherDisplay:10.37,2013-03-06 12:18:00,
2013-03-06 07:23:00,27.8,24.7,30.20,ESE,105,10.0,10.0,88,0.00,OVC,FEW,0.00,62.0,WeatherDisplay:10.37,2013-03-06 12:23:00,
2013-03-06 07:28:00,27.9,24.8,30.21,ESE,119,11.5,11.5,88,0.00,OVC,FEW,0.00,79.0,WeatherDisplay:10.37,2013-03-06 12:28:00,
2013-03-06 07:33:00,28.0,24.9,30.21,East,95,11.0,11.0,88,0.00,SCT,FEW,0.00,62.0,WeatherDisplay:10.37,2013-03-06 12:33:00,
2013-03-06 07:38:00,28.2,24.6,30.21,ENE,73,14.0,14.0,86,0.00,SCT,FEW,0.00,120.0,WeatherDisplay:10.37,2013-03-06 12:38:00,
2013-03-06 07:43:00,28.4,24.7,30.21,East,94,9.2,9.2,86,0.00,SCT,FEW,0.00,127.0,WeatherDisplay:10.37,2013-03-06 12:43:00,
2013-03-06 07:48:00,28.6,24.7,30.21,East,94,16.1,16.1,85,0.00,SCT,FEW,0.00,151.0,WeatherDisplay:10.37,2013-03-06 12:48:00,
2013-03-06 07:53:00,28.8,24.9,30.21,ESE,121,16.1,16.1,85,0.00,SCT,FEW,0.00,323.0,WeatherDisplay:10.37,2013-03-06 12:53:00,
2013-03-06 07:59:00,29.4,25.2,30.21,SE,140,12.7,12.7,84,0.00,SCT,FEW,0.00,323.0,WeatherDisplay:10.37,2013-03-06 12:59:00,
2013-03-06 08:04:00,29.4,24.9,30.21,SE,139,13.8,13.8,83,0.00,SCT,FEW,0.00,202.0,WeatherDisplay:10.37,2013-03-06 13:04:00,
2013-03-06 08:09:00,29.4,25.2,30.22,ESE,119,13.0,13.0,84,0.00,SCT,FEW,0.00,483.0,WeatherDisplay:10.37,2013-03-06 13:09:00,
2013-03-06 08:14:00,29.7,25.2,30.22,ESE,115,12.0,12.0,83,0.00,SCT,FEW,0.00,385.0,WeatherDisplay:10.37,2013-03-06 13:14:00,
2013-03-06 08:19:00,29.7,24.6,30.22,ESE,109,17.3,17.3,81,0.00,OVC,FEW,0.00,452.0,WeatherDisplay:10.37,2013-03-06 13:19:00,
2013-03-06 08:24:00,29.8,25.0,30.22,South,173,13.0,13.0,82,0.00,OVC,FEW,0.00,204.0,WeatherDisplay:10.37,2013-03-06 13:24:00,
2013-03-06 08:29:00,30.0,24.6,30.22,ESE,111,10.4,10.4,80,0.00,OVC,FEW,0.00,471.0,WeatherDisplay:10.37,2013-03-06 13:29:00,
2013-03-06 08:34:00,29.9,24.5,30.22,ESE,123,13.8,13.8,80,0.00,OVC,FEW,0.00,318.0,WeatherDisplay:10.37,2013-03-06 13:34:00,
2013-03-06 08:39:00,29.5,24.1,30.22,SE,136,10.4,10.4,80,0.00,OVC,FEW,0.00,241.0,WeatherDisplay:10.37,2013-03-06 13:39:00,
2013-03-06 08:44:00,29.1,23.7,30.23,East,98,15.0,15.0,80,0.00,OVC,FEW,0.00,279.0,WeatherDisplay:10.37,2013-03-06 13:44:00,
2013-03-06 08:49:00,29.0,23.6,30.23,ESE,103,18.4,18.4,80,0.00,OVC,FEW,0.00,422.0,WeatherDisplay:10.37,2013-03-06 13:49:00,
2013-03-06 08:54:00,28.7,23.6,30.23,ESE,105,9.0,9.0,81,0.00,OVC,FEW,0.00,257.0,WeatherDisplay:10.37,2013-03-06 13:54:00,
2013-03-06 08:59:00,28.9,22.9,30.23,East,80,19.6,19.6,78,0.00,OVC,FEW,0.00,664.0,WeatherDisplay:10.37,2013-03-06 13:59:00,
2013-03-06 09:04:00,29.6,24.2,30.23,SSE,162,10.4,10.4,80,0.00,OVC,FEW,0.00,455.0,WeatherDisplay:10.37,2013-03-06 14:04:00,
2013-03-06 09:09:00,29.7,23.4,30.23,East,99,18.4,18.4,77,0.00,OVC,FEW,0.00,336.0,WeatherDisplay:10.37,2013-03-06 14:09:00,
2013-03-06 09:14:00,29.0,23.0,30.23,SE,130,15.0,15.0,78,0.00,OVC,FEW,0.00,236.0,WeatherDisplay:10.37,2013-03-06 14:14:00,
2013-03-06 09:20:00,28.4,22.7,30.24,ESE,113,14.0,14.0,79,0.00,OVC,FEW,0.00,227.0,WeatherDisplay:10.37,2013-03-06 14:20:00,
2013-03-06 09:25:00,28.3,22.9,30.24,SE,130,14.0,14.0,80,0.00,OVC,FEW,0.00,197.0,WeatherDisplay:10.37,2013-03-06 14:25:00,
2013-03-06 09:30:00,28.2,22.8,30.24,ESE,123,12.7,12.7,80,0.00,OVC,FEW,0.00,181.0,WeatherDisplay:10.37,2013-03-06 14:30:00,
2013-03-06 09:35:00,28.1,23.0,30.24,SE,129,12.0,12.0,81,0.00,OVC,FEW,0.00,178.0,WeatherDisplay:10.37,2013-03-06 14:35:00,
2013-03-06 09:40:00,28.0,22.9,30.24,SSW,194,10.4,10.4,81,0.00,OVC,FEW,0.00,199.0,WeatherDisplay:10.37,2013-03-06 14:40:00,
2013-03-06 09:45:00,27.8,22.4,30.24,ESE,105,16.1,16.1,80,0.00,OVC,FEW,0.00,176.0,WeatherDisplay:10.37,2013-03-06 14:45:00,
2013-03-06 09:50:00,27.8,22.7,30.24,East,99,14.0,14.0,81,0.00,OVC,FEW,0.00,169.0,WeatherDisplay:10.37,2013-03-06 14:50:00,
2013-03-06 09:55:00,27.7,22.9,30.24,East,96,13.0,13.0,82,0.00,OVC,FEW,0.00,160.0,WeatherDisplay:10.37,2013-03-06 14:55:00,
2013-03-06 10:00:00,27.5,22.7,30.24,ESE,116,13.8,13.8,82,0.00,OVC,FEW,0.00,153.0,WeatherDisplay:10.37,2013-03-06 15:00:00,
2013-03-06 10:05:00,27.5,23.0,30.24,ESE,112,9.2,9.2,83,0.00,OVC,FEW,0.00,148.0,WeatherDisplay:10.37,2013-03-06 15:05:00,
2013-03-06 10:10:00,27.6,23.1,30.24,ESE,117,10.4,10.4,83,0.00,OVC,FEW,0.00,148.0,WeatherDisplay:10.37,2013-03-06 15:10:00,
2013-03-06 10:16:00,27.8,23.3,30.24,SE,128,8.1,8.1,83,0.00,OVC,FEW,0.00,207.0,WeatherDisplay:10.37,2013-03-06 15:16:00,
2013-03-06 10:21:00,27.9,23.1,30.24,ESE,107,13.0,13.0,82,0.00,OVC,FEW,0.00,230.0,WeatherDisplay:10.37,2013-03-06 15:21:00,
2013-03-06 10:26:00,28.2,23.7,30.23,SSE,147,9.2,9.2,83,0.00,OVC,FEW,0.00,288.0,WeatherDisplay:10.37,2013-03-06 15:26:00,
2013-03-06 10:31:00,28.6,23.2,30.23,ENE,71,7.0,7.0,80,0.00,OVC,FEW,0.00,362.0,WeatherDisplay:10.37,2013-03-06 15:31:00,
2013-03-06 10:36:00,29.1,22.5,30.24,East,80,18.0,18.0,76,0.00,OVC,FEW,0.00,478.0,WeatherDisplay:10.37,2013-03-06 15:36:00,
2013-03-06 10:41:00,29.5,23.5,30.23,East,86,12.0,12.0,78,0.00,OVC,FEW,0.00,429.0,WeatherDisplay:10.37,2013-03-06 15:41:00,
2013-03-06 10:46:00,29.9,22.9,30.23,SE,130,18.4,18.4,75,0.00,OVC,FEW,0.00,473.0,WeatherDisplay:10.37,2013-03-06 15:46:00,
2013-03-06 10:51:00,30.2,22.9,30.23,East,90,14.0,14.0,74,0.00,OVC,FEW,0.00,438.0,WeatherDisplay:10.37,2013-03-06 15:51:00,
2013-03-06 10:56:00,30.0,22.7,30.23,East,99,12.0,12.0,74,0.00,OVC,FEW,0.00,362.0,WeatherDisplay:10.37,2013-03-06 15:56:00,
2013-03-06 11:01:00,30.1,23.1,30.23,East,96,11.5,11.5,75,0.00,OVC,FEW,0.00,295.0,WeatherDisplay:10.37,2013-03-06 16:01:00,
2013-03-06 11:06:00,30.0,22.4,30.24,East,101,16.1,16.1,73,0.00,OVC,FEW,0.00,276.0,WeatherDisplay:10.37,2013-03-06 16:06:00,
2013-03-06 11:11:00,29.7,23.1,30.24,East,98,19.6,19.6,76,0.00,OVC,FEW,0.00,287.0,WeatherDisplay:10.37,2013-03-06 16:11:00,
2013-03-06 11:16:00,29.6,23.0,30.24,ESE,118,8.1,8.1,76,0.00,OVC,FEW,0.00,352.0,WeatherDisplay:10.37,2013-03-06 16:16:00,
2013-03-06 11:21:00,29.7,22.7,30.24,East,92,14.0,14.0,75,0.00,OVC,FEW,0.00,308.0,WeatherDisplay:10.37,2013-03-06 16:21:00,
2013-03-06 11:26:00,29.8,22.5,30.24,East,101,17.0,17.0,74,0.00,OVC,FEW,0.00,257.0,WeatherDisplay:10.37,2013-03-06 16:26:00,
2013-03-06 11:31:00,29.6,22.3,30.25,ESE,112,11.5,11.5,74,0.00,OVC,FEW,0.00,211.0,WeatherDisplay:10.37,2013-03-06 16:31:00,
2013-03-06 11:36:00,29.5,22.2,30.24,ESE,117,10.0,18.0,74,0.00,OVC,FEW,0.00,195.0,WeatherDisplay:10.37,2013-03-06 16:36:00,
2013-03-06 11:41:00,29.4,22.1,30.25,East,89,13.0,13.0,74,0.00,OVC,FEW,0.00,213.0,WeatherDisplay:10.37,2013-03-06 16:41:00,
2013-03-06 11:46:00,29.4,22.1,30.24,ESE,123,16.1,16.1,74,0.00,OVC,FEW,0.00,345.0,WeatherDisplay:10.37,2013-03-06 16:46:00,
2013-03-06 11:51:00,29.8,22.8,30.24,ESE,115,5.0,18.0,75,0.00,OVC,FEW,0.00,371.0,WeatherDisplay:10.37,2013-03-06 16:51:00,
2013-03-06 11:56:00,30.0,23.0,30.24,East,92,10.4,10.4,75,0.00,OVC,FEW,0.00,285.0,WeatherDisplay:10.37,2013-03-06 16:56:00,
2013-03-06 12:01:00,30.0,22.4,30.24,ESE,113,10.4,10.4,73,0.00,OVC,FEW,0.00,221.0,WeatherDisplay:10.37,2013-03-06 17:01:00,
2013-03-06 12:06:00,29.7,22.4,30.23,ESE,116,7.0,16.0,74,0.00,OVC,FEW,0.00,260.0,WeatherDisplay:10.37,2013-03-06 17:06:00,
2013-03-06 12:11:00,29.6,22.3,30.23,East,94,16.1,16.1,74,0.00,OVC,FEW,0.00,220.0,WeatherDisplay:10.37,2013-03-06 17:11:00,
2013-03-06 12:16:00,29.5,22.9,30.23,ESE,103,10.4,10.4,76,0.00,OVC,FEW,0.00,188.0,WeatherDisplay:10.37,2013-03-06 17:16:00,
2013-03-06 12:21:00,29.6,22.6,30.23,SE,146,13.0,13.0,75,0.00,OVC,FEW,0.00,193.0,WeatherDisplay:10.37,2013-03-06 17:21:00,
2013-03-06 12:26:00,29.4,22.5,30.23,SE,134,11.5,11.5,75,0.00,OVC,FEW,0.00,183.0,WeatherDisplay:10.37,2013-03-06 17:26:00,
2013-03-06 12:31:00,29.2,22.6,30.23,ESE,109,12.0,12.0,76,0.00,OVC,FEW,0.00,169.0,WeatherDisplay:10.37,2013-03-06 17:31:00,
2013-03-06 12:36:00,29.2,22.9,30.22,East,92,10.4,10.4,77,0.00,OVC,FEW,0.00,285.0,WeatherDisplay:10.37,2013-03-06 17:36:00,
2013-03-06 12:41:00,29.6,23.0,30.22,East,98,8.1,8.1,76,0.00,OVC,FEW,0.00,494.0,WeatherDisplay:10.37,2013-03-06 17:41:00,
2013-03-06 12:46:00,30.8,24.1,30.21,ESE,106,11.5,11.5,76,0.00,OVC,FEW,0.00,981.0,WeatherDisplay:10.37,2013-03-06 17:46:00,
2013-03-06 12:51:00,31.6,23.9,30.21,ESE,123,12.0,12.0,73,0.00,OVC,FEW,0.00,993.0,WeatherDisplay:10.37,2013-03-06 17:51:00,
2013-03-06 12:56:00,31.5,23.2,30.21,SE,131,14.0,14.0,71,0.00,OVC,FEW,0.00,308.0,WeatherDisplay:10.37,2013-03-06 17:56:00,
2013-03-06 13:01:00,30.8,22.5,30.21,SE,125,17.0,17.0,71,0.00,OVC,FEW,0.00,281.0,WeatherDisplay:10.37,2013-03-06 18:01:00,
2013-03-06 13:06:00,30.6,23.3,30.21,ESE,105,11.5,11.5,74,0.00,OVC,FEW,0.00,397.0,WeatherDisplay:10.37,2013-03-06 18:06:00,
2013-03-06 13:11:00,31.0,23.4,30.21,ESE,115,13.0,13.0,73,0.00,OVC,FEW,0.00,380.0,WeatherDisplay:10.37,2013-03-06 18:11:00,
2013-03-06 13:16:00,31.0,23.4,30.21,East,90,11.5,11.5,73,0.00,OVC,FEW,0.00,403.0,WeatherDisplay:10.37,2013-03-06 18:16:00,
2013-03-06 13:21:00,31.6,23.9,30.21,East,93,10.4,10.4,73,0.00,OVC,FEW,0.00,411.0,WeatherDisplay:10.37,2013-03-06 18:21:00,
2013-03-06 13:26:00,31.3,23.6,30.21,East,97,12.0,12.0,73,0.00,OVC,FEW,0.00,406.0,WeatherDisplay:10.37,2013-03-06 18:26:00,
2013-03-06 13:31:00,30.9,23.9,30.22,East,91,14.0,14.0,75,0.01,RA,FEW,0.01,258.0,WeatherDisplay:10.37,2013-03-06 18:31:00,
2013-03-06 13:36:00,30.5,24.1,30.21,East,86,12.7,12.7,77,0.01,RA,FEW,0.01,366.0,WeatherDisplay:10.37,2013-03-06 18:36:00,
2013-03-06 13:41:00,30.9,24.5,30.21,ESE,111,6.0,6.0,77,0.01,OVC,FEW,0.01,1063.0,WeatherDisplay:10.37,2013-03-06 18:41:00,
2013-03-06 13:46:00,31.4,24.4,30.21,South,180,13.0,13.0,75,0.01,OVC,FEW,0.01,374.0,WeatherDisplay:10.37,2013-03-06 18:46:00,
2013-03-06 13:51:00,31.2,24.5,30.21,SE,125,9.2,9.2,76,0.01,OVC,FEW,0.01,438.0,WeatherDisplay:10.37,2013-03-06 18:51:00,
2013-03-06 13:56:00,31.1,26.0,30.21,ESE,117,6.0,6.0,81,0.01,OVC,FEW,0.01,448.0,WeatherDisplay:10.37,2013-03-06 18:56:00,
2013-03-06 14:01:00,31.3,25.5,30.21,East,95,8.1,8.1,79,0.01,OVC,FEW,0.01,761.0,WeatherDisplay:10.37,2013-03-06 19:01:00,
2013-03-06 14:06:00,31.6,26.1,30.21,SE,129,5.0,5.0,80,0.01,OVC,FEW,0.01,304.0,WeatherDisplay:10.37,2013-03-06 19:06:00,
2013-03-06 14:11:00,31.5,24.8,30.20,ESE,108,12.0,12.0,76,0.01,OVC,FEW,0.01,156.0,WeatherDisplay:10.37,2013-03-06 19:11:00,
2013-03-06 14:16:00,30.7,24.0,30.21,ESE,107,11.5,11.5,76,0.01,OVC,FEW,0.01,202.0,WeatherDisplay:10.37,2013-03-06 19:16:00,
2013-03-06 14:21:00,30.2,23.5,30.21,ESE,116,11.5,11.5,76,0.01,OVC,FEW,0.01,288.0,WeatherDisplay:10.37,2013-03-06 19:21:00,
2013-03-06 14:26:00,30.4,24.4,30.20,ESE,115,6.0,6.0,78,0.01,OVC,FEW,0.01,232.0,WeatherDisplay:10.37,2013-03-06 19:26:00,
2013-03-06 14:31:00,30.8,24.7,30.20,ESE,122,10.4,10.4,78,0.00,OVC,FEW,0.01,378.0,WeatherDisplay:10.37,2013-03-06 19:31:00,
2013-03-06 14:36:00,31.1,24.7,30.20,SE,130,8.1,8.1,77,0.00,OVC,FEW,0.01,204.0,WeatherDisplay:10.37,2013-03-06 19:36:00,
2013-03-06 14:41:00,31.1,23.5,30.20,East,85,10.4,10.4,73,0.00,OVC,FEW,0.01,258.0,WeatherDisplay:10.37,2013-03-06 19:41:00,
2013-03-06 14:46:00,31.3,23.6,30.20,ESE,108,12.7,12.7,73,0.00,OVC,FEW,0.01,844.0,WeatherDisplay:10.37,2013-03-06 19:46:00,
2013-03-06 14:52:00,31.6,22.9,30.21,SE,140,10.4,10.4,70,0.00,OVC,FEW,0.01,181.0,WeatherDisplay:10.37,2013-03-06 19:52:00,
2013-03-06 14:57:00,30.9,22.9,30.21,SE,126,15.0,15.0,72,0.00,OVC,FEW,0.01,130.0,WeatherDisplay:10.37,2013-03-06 19:57:00,
2013-03-06 15:02:00,30.1,23.4,30.21,East,82,15.0,15.0,76,0.00,OVC,FEW,0.01,156.0,WeatherDisplay:10.37,2013-03-06 20:02:00,
2013-03-06 15:07:00,29.8,23.2,30.21,East,80,14.0,14.0,76,0.00,OVC,FEW,0.01,118.0,WeatherDisplay:10.37,2013-03-06 20:07:00,
2013-03-06 15:12:00,29.8,23.5,30.21,ESE,115,11.0,11.0,77,0.00,OVC,FEW,0.01,466.0,WeatherDisplay:10.37,2013-03-06 20:12:00,
2013-03-06 15:17:00,30.3,23.6,30.20,SE,135,11.0,11.0,76,0.00,OVC,FEW,0.01,471.0,WeatherDisplay:10.37,2013-03-06 20:17:00,
2013-03-06 15:22:00,31.1,23.5,30.20,SSE,150,9.2,9.2,73,0.00,OVC,FEW,0.01,582.0,WeatherDisplay:10.37,2013-03-06 20:22:00,
2013-03-06 15:27:00,31.6,23.6,30.20,East,92,11.5,11.5,72,0.00,OVC,FEW,0.01,290.0,WeatherDisplay:10.37,2013-03-06 20:27:00,
2013-03-06 15:32:00,31.6,23.9,30.20,East,86,14.0,14.0,73,0.00,OVC,FEW,0.01,383.0,WeatherDisplay:10.37,2013-03-06 20:32:00,
2013-03-06 15:37:00,30.5,23.5,30.21,East,89,12.0,12.0,75,0.00,OVC,FEW,0.01,91.0,WeatherDisplay:10.37,2013-03-06 20:37:00,
2013-03-06 15:42:00,29.8,23.5,30.20,ESE,112,15.0,15.0,77,0.00,OVC,FEW,0.01,95.0,WeatherDisplay:10.37,2013-03-06 20:42:00,
2013-03-06 15:47:00,29.5,23.5,30.21,ESE,109,13.8,13.8,78,0.00,OVC,FEW,0.01,98.0,WeatherDisplay:10.37,2013-03-06 20:47:00,
2013-03-06 15:52:00,29.3,23.6,30.21,ESE,107,11.0,11.0,79,0.00,OVC,FEW,0.01,100.0,WeatherDisplay:10.37,2013-03-06 20:52:00,
2013-03-06 15:57:00,29.2,23.5,30.22,ESE,122,7.0,7.0,79,0.00,OVC,FEW,0.01,146.0,WeatherDisplay:10.37,2013-03-06 20:57:00,
2013-03-06 16:02:00,29.1,22.5,30.22,ESE,118,13.8,13.8,76,0.00,OVC,FEW,0.01,120.0,WeatherDisplay:10.37,2013-03-06 21:02:00,
2013-03-06 16:07:00,29.1,22.2,30.22,ESE,115,14.0,14.0,75,0.00,OVC,FEW,0.01,93.0,WeatherDisplay:10.37,2013-03-06 21:07:00,
2013-03-06 16:12:00,28.9,22.0,30.22,ESE,107,10.4,10.4,75,0.00,OVC,FEW,0.01,93.0,WeatherDisplay:10.37,2013-03-06 21:12:00,
2013-03-06 16:17:00,28.9,22.3,30.22,East,94,9.2,9.2,76,0.00,OVC,FEW,0.01,79.0,WeatherDisplay:10.37,2013-03-06 21:17:00,
2013-03-06 16:22:00,28.9,22.6,30.22,East,101,7.0,7.0,77,0.00,OVC,FEW,0.01,77.0,WeatherDisplay:10.37,2013-03-06 21:22:00,
2013-03-06 16:27:00,29.0,23.3,30.22,ESE,112,6.0,6.0,79,0.00,OVC,FEW,0.01,79.0,WeatherDisplay:10.37,2013-03-06 21:27:00,
2013-03-06 16:32:00,28.9,23.8,30.23,SE,126,5.0,5.0,81,0.00,OVC,FEW,0.01,21.0,WeatherDisplay:10.37,2013-03-06 21:32:00,
2013-03-06 16:37:00,28.8,23.7,30.23,SE,141,10.4,10.4,81,0.00,OVC,FEW,0.01,19.0,WeatherDisplay:10.37,2013-03-06 21:37:00,
2013-03-06 16:42:00,28.3,23.2,30.22,East,86,6.9,6.9,81,0.00,OVC,FEW,0.01,30.0,WeatherDisplay:10.37,2013-03-06 21:42:00,
2013-03-06 16:47:00,27.8,23.6,30.23,ESE,105,7.0,7.0,84,0.00,OVC,FEW,0.01,42.0,WeatherDisplay:10.37,2013-03-06 21:47:00,
2013-03-06 16:52:00,27.5,23.6,30.23,ESE,107,13.0,13.0,85,0.00,OVC,FEW,0.01,44.0,WeatherDisplay:10.37,2013-03-06 21:52:00,
2013-03-06 16:57:00,27.3,23.4,30.23,SE,128,10.0,10.0,85,0.00,OVC,FEW,0.01,42.0,WeatherDisplay:10.37,2013-03-06 21:57:00,
2013-03-06 17:02:00,27.2,23.6,30.23,ESE,114,4.0,4.0,86,0.00,OVC,FEW,0.01,32.0,WeatherDisplay:10.37,2013-03-06 22:02:00,
2013-03-06 17:08:00,27.2,23.6,30.23,ESE,105,6.0,6.0,86,0.00,OVC,FEW,0.01,23.0,WeatherDisplay:10.37,2013-03-06 22:08:00,
2013-03-06 17:13:00,27.1,23.2,30.23,ESE,111,7.0,7.0,85,0.00,OVC,FEW,0.01,21.0,WeatherDisplay:10.37,2013-03-06 22:13:00,
2013-03-06 17:18:00,27.1,23.2,30.23,ESE,107,6.0,6.0,85,0.00,OVC,FEW,0.01,16.0,WeatherDisplay:10.37,2013-03-06 22:18:00,
2013-03-06 17:23:00,27.1,23.2,30.23,ESE,110,5.0,5.0,85,0.00,OVC,FEW,0.01,12.0,WeatherDisplay:10.37,2013-03-06 22:23:00,
2013-03-06 17:28:00,27.0,23.1,30.23,East,101,7.0,7.0,85,0.00,OVC,FEW,0.01,9.0,WeatherDisplay:10.37,2013-03-06 22:28:00,
2013-03-06 17:33:00,27.0,22.8,30.23,East,99,6.9,6.9,84,0.00,OVC,FEW,0.01,5.0,WeatherDisplay:10.37,2013-03-06 22:33:00,
2013-03-06 17:38:00,27.1,22.9,30.23,ESE,117,10.4,10.4,84,0.00,OVC,FEW,0.01,0.0,WeatherDisplay:10.37,2013-03-06 22:38:00,
2013-03-06 17:43:00,27.1,22.6,30.23,ESE,109,7.0,7.0,83,0.00,OVC,FEW,0.01,0.0,WeatherDisplay:10.37,2013-03-06 22:43:00,
2013-03-06 17:48:00,27.2,22.4,30.23,ESE,107,8.1,8.1,82,0.00,OVC,FEW,0.01,0.0,WeatherDisplay:10.37,2013-03-06 22:48:00,
2013-03-06 17:53:00,27.2,22.4,30.23,East,89,5.8,5.8,82,0.00,OVC,FEW,0.01,0.0,WeatherDisplay:10.37,2013-03-06 22:53:00,
2013-03-06 17:58:00,27.2,22.1,30.23,East,87,5.0,5.0,81,0.00,OVC,FEW,0.01,0.0,WeatherDisplay:10.37,2013-03-06 22:58:00,
2013-03-06 18:03:00,27.1,22.3,30.24,SE,128,9.0,9.0,82,0.00,-SN,FEW,0.01,0.0,WeatherDisplay:10.37,2013-03-06 23:03:00,
2013-03-06 18:08:00,26.9,22.4,30.24,ESE,113,8.0,8.0,83,0.00,-SN,FEW,0.01,0.0,WeatherDisplay:10.37,2013-03-06 23:08:00,
2013-03-06 18:13:00,26.7,22.5,30.24,East,100,7.0,7.0,84,0.00,-SN,FEW,0.01,0.0,WeatherDisplay:10.37,2013-03-06 23:13:00,
2013-03-06 18:18:00,26.5,22.6,30.24,SE,124,5.0,5.0,85,0.00,-SN,FEW,0.01,0.0,WeatherDisplay:10.37,2013-03-06 23:18:00,
2013-03-06 18:23:00,26.3,22.7,30.24,ESE,111,7.0,7.0,86,0.00,-SN,FEW,0.01,0.0,WeatherDisplay:10.37,2013-03-06 23:23:00,
2013-03-06 18:28:00,26.1,22.2,30.24,ESE,116,7.0,7.0,85,0.00,-SN,FEW,0.01,0.0,WeatherDisplay:10.37,2013-03-06 23:28:00,
2013-03-06 18:33:00,26.0,22.1,30.24,ESE,107,9.0,9.0,85,0.00,-SN,FEW,0.01,0.0,WeatherDisplay:10.37,2013-03-06 23:33:00,
2013-03-06 18:38:00,26.0,21.8,30.25,ESE,120,10.0,10.0,84,0.00,-SN,FEW,0.01,0.0,WeatherDisplay:10.37,2013-03-06 23:38:00,
2013-03-06 18:43:00,25.9,21.7,30.25,SE,125,11.0,11.0,84,0.00,-SN,FEW,0.01,0.0,WeatherDisplay:10.37,2013-03-06 23:43:00,
2013-03-06 18:48:00,26.0,21.5,30.25,East,92,10.4,10.4,83,0.00,-SN,FEW,0.01,0.0,WeatherDisplay:10.37,2013-03-06 23:48:00,
2013-03-06 18:53:00,26.0,21.5,30.25,East,92,12.0,12.0,83,0.00,-SN,FEW,0.01,0.0,WeatherDisplay:10.37,2013-03-06 23:53:00,
2013-03-06 18:58:00,25.9,21.4,30.25,East,97,12.0,12.0,83,0.00,-SN,FEW,0.01,0.0,WeatherDisplay:10.37,2013-03-06 23:58:00,
2013-03-06 19:03:00,25.8,21.1,30.25,East,88,11.5,11.5,82,0.00,OVC,FEW,0.01,0.0,WeatherDisplay:10.37,2013-03-07 00:03:00,
2013-03-06 19:08:00,25.9,20.6,30.25,ESE,103,10.4,10.4,80,0.00,OVC,FEW,0.01,0.0,WeatherDisplay:10.37,2013-03-07 00:08:00,
2013-03-06 19:13:00,25.8,20.8,30.25,ESE,115,7.0,7.0,81,0.00,OVC,FEW,0.01,0.0,WeatherDisplay:10.37,2013-03-07 00:13:00,
2013-03-06 19:19:00,25.7,20.4,30.25,East,88,8.1,8.1,80,0.00,OVC,FEW,0.01,0.0,WeatherDisplay:10.37,2013-03-07 00:19:00,
2013-03-06 19:24:00,25.7,20.1,30.25,ESE,110,10.4,10.4,79,0.00,OVC,FEW,0.01,0.0,WeatherDisplay:10.37,2013-03-07 00:24:00,
2013-03-06 19:29:00,25.6,20.0,30.25,ESE,117,10.0,10.0,79,0.00,OVC,FEW,0.01,0.0,WeatherDisplay:10.37,2013-03-07 00:29:00,
2013-03-06 19:34:00,25.5,19.6,30.25,ESE,104,10.4,10.4,78,0.00,OVC,FEW,0.01,0.0,WeatherDisplay:10.37,2013-03-07 00:34:00,
2013-03-06 19:39:00,25.5,19.6,30.25,SE,134,11.5,11.5,78,0.00,OVC,FEW,0.01,0.0,WeatherDisplay:10.37,2013-03-07 00:39:00,
2013-03-06 19:44:00,25.4,19.5,30.25,SE,132,15.0,15.0,78,0.00,OVC,FEW,0.01,0.0,WeatherDisplay:10.37,2013-03-07 00:44:00,
2013-03-06 19:49:00,25.3,19.7,30.24,ESE,123,12.0,12.0,79,0.00,OVC,FEW,0.01,0.0,WeatherDisplay:10.37,2013-03-07 00:49:00,
2013-03-06 19:54:00,25.3,19.7,30.25,East,101,14.0,14.0,79,0.00,OVC,FEW,0.01,0.0,WeatherDisplay:10.37,2013-03-07 00:54:00,
2013-03-06 19:59:00,25.3,19.7,30.25,ESE,108,14.0,14.0,79,0.00,OVC,FEW,0.01,0.0,WeatherDisplay:10.37,2013-03-07 00:59:00,
2013-03-06 20:04:00,25.3,20.0,30.25,ESE,106,10.4,10.4,80,0.00,BKN,FEW,0.01,0.0,WeatherDisplay:10.37,2013-03-07 01:04:00,
2013-03-06 20:09:00,25.2,19.9,30.25,East,100,9.2,9.2,80,0.00,BKN,FEW,0.01,0.0,WeatherDisplay:10.37,2013-03-07 01:09:00,
2013-03-06 20:14:00,25.2,20.2,30.25,ESE,119,11.5,11.5,81,0.00,BKN,FEW,0.01,0.0,WeatherDisplay:10.37,2013-03-07 01:14:00,
2013-03-06 20:19:00,25.1,20.1,30.25,ESE,110,12.0,12.0,81,0.00,BKN,FEW,0.01,0.0,WeatherDisplay:10.37,2013-03-07 01:19:00,
2013-03-06 20:24:00,25.0,19.7,30.25,East,93,17.3,17.3,80,0.00,BKN,FEW,0.01,0.0,WeatherDisplay:10.37,2013-03-07 01:24:00,
2013-03-06 20:29:00,25.0,20.0,30.25,ESE,122,10.4,10.4,81,0.00,BKN,FEW,0.01,0.0,WeatherDisplay:10.37,2013-03-07 01:29:00,
2013-03-06 20:34:00,25.0,20.0,30.25,SSE,167,10.0,10.0,81,0.00,BKN,FEW,0.01,0.0,WeatherDisplay:10.37,2013-03-07 01:34:00,
2013-03-06 20:39:00,24.9,19.6,30.25,East,88,16.1,16.1,80,0.00,BKN,FEW,0.01,0.0,WeatherDisplay:10.37,2013-03-07 01:39:00,
2013-03-06 20:44:00,24.8,19.5,30.25,ESE,121,16.1,16.1,80,0.00,BKN,FEW,0.01,0.0,WeatherDisplay:10.37,2013-03-07 01:44:00,
2013-03-06 20:49:00,24.7,19.7,30.25,East,81,11.0,11.0,81,0.00,BKN,FEW,0.01,0.0,WeatherDisplay:10.37,2013-03-07 01:49:00,
2013-03-06 20:54:00,24.6,19.6,30.25,East,84,11.5,11.5,81,0.00,BKN,FEW,0.01,0.0,WeatherDisplay:10.37,2013-03-07 01:54:00,
2013-03-06 20:59:00,24.5,19.5,30.24,ESE,107,14.0,14.0,81,0.00,BKN,FEW,0.01,0.0,WeatherDisplay:10.37,2013-03-07 01:59:00,
2013-03-06 21:04:00,24.5,19.8,30.25,ESE,102,13.0,13.0,82,0.00,OVC,FEW,0.01,0.0,WeatherDisplay:10.37,2013-03-07 02:04:00,
2013-03-06 21:09:00,24.4,19.7,30.25,ESE,118,11.5,11.5,82,0.00,OVC,FEW,0.01,0.0,WeatherDisplay:10.37,2013-03-07 02:09:00,
2013-03-06 21:14:00,24.4,19.7,30.25,ESE,119,7.0,7.0,82,0.00,OVC,FEW,0.01,0.0,WeatherDisplay:10.37,2013-03-07 02:14:00,
2013-03-06 21:19:00,24.4,19.4,30.25,SE,132,16.0,16.0,81,0.00,OVC,FEW,0.01,0.0,WeatherDisplay:10.37,2013-03-07 02:19:00,
2013-03-06 21:24:00,24.4,19.7,30.25,East,97,11.0,11.0,82,0.00,OVC,FEW,0.01,0.0,WeatherDisplay:10.37,2013-03-07 02:24:00,
2013-03-06 21:30:00,24.3,19.6,30.24,East,92,13.8,13.8,82,0.00,OVC,FEW,0.01,0.0,WeatherDisplay:10.37,2013-03-07 02:30:00,
2013-03-06 21:35:00,24.3,19.6,30.24,East,93,11.5,11.5,82,0.00,OVC,FEW,0.01,0.0,WeatherDisplay:10.37,2013-03-07 02:35:00,
2013-03-06 21:40:00,24.2,19.5,30.24,ESE,105,9.2,9.2,82,0.00,OVC,FEW,0.01,0.0,WeatherDisplay:10.37,2013-03-07 02:40:00,
2013-03-06 21:45:00,24.2,19.5,30.24,ESE,113,16.1,16.1,82,0.00,OVC,FEW,0.01,0.0,WeatherDisplay:10.37,2013-03-07 02:45:00,
2013-03-06 21:50:00,24.2,19.5,30.24,East,92,13.0,13.0,82,0.00,OVC,FEW,0.01,0.0,WeatherDisplay:10.37,2013-03-07 02:50:00,
2013-03-06 21:55:00,24.2,19.2,30.24,East,83,10.4,10.4,81,0.00,OVC,FEW,0.01,0.0,WeatherDisplay:10.37,2013-03-07 02:55:00,
2013-03-06 22:00:00,24.1,19.4,30.24,ESE,107,11.5,11.5,82,0.00,OVC,FEW,0.01,0.0,WeatherDisplay:10.37,2013-03-07 03:00:00,
2013-03-06 22:05:00,24.1,19.1,30.24,SE,129,10.4,10.4,81,0.00,OVC,FEW,0.01,0.0,WeatherDisplay:10.37,2013-03-07 03:05:00,
2013-03-06 22:10:00,24.1,19.1,30.24,East,98,9.2,9.2,81,0.00,OVC,FEW,0.01,0.0,WeatherDisplay:10.37,2013-03-07 03:10:00,
2013-03-06 22:15:00,24.1,19.1,30.23,SE,132,10.4,10.4,81,0.00,OVC,FEW,0.01,0.0,WeatherDisplay:10.37,2013-03-07 03:15:00,
2013-03-06 22:20:00,24.0,19.0,30.23,ESE,109,7.0,7.0,81,0.00,OVC,FEW,0.01,0.0,WeatherDisplay:10.37,2013-03-07 03:20:00,
2013-03-06 22:25:00,23.9,19.2,30.23,East,93,11.5,11.5,82,0.00,OVC,FEW,0.01,0.0,WeatherDisplay:10.37,2013-03-07 03:25:00,
2013-03-06 22:30:00,23.9,19.2,30.23,East,93,10.4,10.4,82,0.00,OVC,FEW,0.01,0.0,WeatherDisplay:10.37,2013-03-07 03:30:00,
2013-03-06 22:35:00,23.9,19.2,30.23,SSE,148,9.2,9.2,82,0.00,OVC,FEW,0.01,0.0,WeatherDisplay:10.37,2013-03-07 03:35:00,
2013-03-06 22:40:00,23.9,19.2,30.23,ESE,116,10.4,10.4,82,0.00,OVC,FEW,0.01,0.0,WeatherDisplay:10.37,2013-03-07 03:40:00,
2013-03-06 22:45:00,23.8,19.1,30.23,ESE,111,16.1,16.1,82,0.00,OVC,FEW,0.01,0.0,WeatherDisplay:10.37,2013-03-07 03:45:00,
2013-03-06 22:50:00,23.8,18.8,30.23,East,82,18.4,18.4,81,0.00,OVC,FEW,0.01,0.0,WeatherDisplay:10.37,2013-03-07 03:50:00,
2013-03-06 22:55:00,23.8,18.8,30.23,ESE,102,13.0,13.0,81,0.00,OVC,FEW,0.01,0.0,WeatherDisplay:10.37,2013-03-07 03:55:00,
2013-03-06 23:00:00,23.8,19.1,30.23,ESE,103,6.0,6.0,82,0.00,OVC,FEW,0.01,0.0,WeatherDisplay:10.37,2013-03-07 04:00:00,
2013-03-06 23:05:00,23.7,19.0,30.23,SE,127,5.0,5.0,82,0.00,OVC,FEW,0.01,0.0,WeatherDisplay:10.37,2013-03-07 04:05:00,
2013-03-06 23:10:00,23.7,19.0,30.23,ESE,109,11.5,11.5,82,0.00,OVC,FEW,0.01,0.0,WeatherDisplay:10.37,2013-03-07 04:10:00,
2013-03-06 23:16:00,23.6,18.6,30.23,East,88,14.0,14.0,81,0.00,OVC,FEW,0.01,0.0,WeatherDisplay:10.37,2013-03-07 04:16:00,
2013-03-06 23:21:00,23.6,18.6,30.23,East,92,11.5,11.5,81,0.00,OVC,FEW,0.01,0.0,WeatherDisplay:10.37,2013-03-07 04:21:00,
2013-03-06 23:26:00,23.6,18.6,30.23,ESE,123,11.0,11.0,81,0.00,OVC,FEW,0.01,0.0,WeatherDisplay:10.37,2013-03-07 04:26:00,
2013-03-06 23:31:00,23.6,18.6,30.23,SE,135,10.4,10.4,81,0.00,OVC,FEW,0.01,0.0,WeatherDisplay:10.37,2013-03-07 04:31:00,
2013-03-06 23:36:00,23.5,18.8,30.23,ESE,122,6.0,6.0,82,0.00,OVC,FEW,0.01,0.0,WeatherDisplay:10.37,2013-03-07 04:36:00,
2013-03-06 23:41:00,23.4,18.7,30.22,East,100,11.5,11.5,82,0.00,OVC,FEW,0.01,0.0,WeatherDisplay:10.37,2013-03-07 04:41:00,
2013-03-06 23:46:00,23.4,18.7,30.22,ESE,102,13.0,13.0,82,0.00,OVC,FEW,0.01,0.0,WeatherDisplay:10.37,2013-03-07 04:46:00,
2013-03-06 23:51:00,23.4,18.7,30.22,South,172,12.0,12.0,82,0.00,OVC,FEW,0.01,0.0,WeatherDisplay:10.37,2013-03-07 04:51:00,
2013-03-06 23:56:00,23.4,18.7,30.22,East,99,7.0,7.0,82,0.00,OVC,FEW,0.01,0.0,WeatherDisplay:10.37,2013-03-07 04:56:00,